Terug naar catalogus

MIDAS 4 DEB

LostPO
NORAD 45468·DEBRIS·🇺🇸 United States

Gelanceerd Oct 21, 1961 vanaf Vandenberg Space Force Base

Loading…

Volgende Passages (komende 24 uur)

TLE

VerouderdSource: Space-Track

Epoch: Jun 27, 2026, 13:39 UTC

1 45468U 61028N   26178.56922226  .00000010  00000-0  58733-2 0  9991
2 45468  95.8467 236.0685 0321065 218.8621 138.8740  8.68915111305327

Volg MIDAS 4 DEB in realtime met AllMySat

Download on the App Store